This is the latest recevied weather packets stored in our database for station/object N2MLB-WX. If no packets are shown the sender has not sent any weather packets the latest 1 day(s).
| Time | Temp. | Humidity | Pressure | Rain* | Wind** | Luminosity | Snow |
|---|---|---|---|---|---|---|---|
| 1777976540 | 17.78° C | 66% | 997 hPa | 0 mm | 4.02 m/s, 216° | 1 W/m² | - |
| 1777976239 | 17.78° C | 66% | 997 hPa | 0 mm | 2.68 m/s, 91° | 1 W/m² | - |
| 1777975939 | 17.78° C | 66% | 997 hPa | 0 mm | 1.34 m/s, 87° | 1 W/m² | - |
| 1777975640 | 18.33° C | 65% | 997 hPa | 0 mm | 1.79 m/s, 87° | 0 W/m² | - |
| 1777975339 | 17.78° C | 66% | 997 hPa | 0 mm | 2.24 m/s, 172° | 0 W/m² | - |
| 1777975040 | 17.78° C | 67% | 997 hPa | 0 mm | 2.24 m/s, 73° | 0 W/m² | - |
| 1777974740 | 17.78° C | 67% | 997 hPa | 0 mm | 2.68 m/s, 47° | 0 W/m² | - |
| 1777974440 | 17.78° C | 66% | 997 hPa | 0 mm | 2.68 m/s, 271° | 0 W/m² | - |
| 1777974141 | 17.78° C | 68% | 997 hPa | 0 mm | 2.68 m/s, 173° | 0 W/m² | - |
| 1777973840 | 17.78° C | 68% | 997 hPa | 0 mm | 3.13 m/s, 88° | 0 W/m² | - |
| 1777973539 | 17.78° C | 68% | 997 hPa | 0 mm | 0 m/s | 0 W/m² | - |
| 1777973241 | 17.22° C | 69% | 997 hPa | 0 mm | 1.34 m/s, 202° | 0 W/m² | - |
| 1777972940 | 17.22° C | 68% | 997 hPa | 0 mm | 3.13 m/s, 163° | 0 W/m² | - |
| 1777972639 | 17.22° C | 68% | 997 hPa | 0 mm | 3.13 m/s, 140° | 0 W/m² | - |
| 1777972340 | 17.22° C | 69% | 997 hPa | 0 mm | 1.79 m/s, 243° | 0 W/m² | - |
| 1777972039 | 17.22° C | 71% | 997 hPa | 0 mm | 3.58 m/s, 133° | 0 W/m² | - |
| 1777971739 | 16.67° C | 72% | 997 hPa | 0 mm | 2.68 m/s, 134° | 0 W/m² | - |
| 1777971439 | 16.67° C | 72% | 998 hPa | 0 mm | 2.24 m/s, 98° | 0 W/m² | - |
| 1777971139 | 16.67° C | 74% | 998 hPa | 0 mm | 0.89 m/s, 161° | 0 W/m² | - |
| 1777970840 | 16.67° C | 73% | 998 hPa | 0 mm | 2.24 m/s, 231° | 0 W/m² | - |
| 1777970541 | 16.67° C | 73% | 998 hPa | 0 mm | 1.34 m/s, 114° | 0 W/m² | - |
| 1777970239 | 16.67° C | 73% | 998 hPa | 0 mm | 1.34 m/s, 78° | 0 W/m² | - |
| 1777969941 | 16.67° C | 74% | 998 hPa | 0 mm | 3.13 m/s, 113° | 0 W/m² | - |
| 1777969640 | 16.11° C | 74% | 998 hPa | 0 mm | 2.24 m/s, 173° | 0 W/m² | - |
| 1777969339 | 16.67° C | 74% | 998 hPa | 0 mm | 1.34 m/s, 211° | 0 W/m² | - |
* Rain latest hour (hover to see other rain measurements)
** Current wind speed in m/s (hover to see current wind gust speed)